HRT430 CNV8-CYQG

Flight info

Callsign HRT430
Flight time 1h 0m
Altitude 22000
Route PICUP AUTTO1
Aircraft PC12/L-SDFGRWY/S

Departure

Time 2026-05-06 12:33
Airport Edenvale Aerodrome (CNV8)

Arrival

Time 2026-05-06 13:33
Airport Windsor International Airport (CYQG)
Time Latitude Longitude Altitude Speed Heading
2026-05-06 12:21 44.44129 -79.96603 710 ft 0 kts 165°
2026-05-06 12:30 44.44128 -79.96602 710 ft 0 kts 165°
2026-05-06 12:30 44.44115 -79.96596 710 ft 2 kts 155°
2026-05-06 12:30 44.44096 -79.96584 710 ft 3 kts 158°
2026-05-06 12:30 44.44068 -79.96570 710 ft 4 kts 157°
2026-05-06 12:31 44.44056 -79.96538 710 ft 2 kts 77°
2026-05-06 12:31 44.44057 -79.96532 710 ft 0 kts 69°
2026-05-06 12:32 44.44047 -79.96559 710 ft 2 kts 58°
2026-05-06 12:33 44.44059 -79.96535 710 ft 12 kts 72°
2026-05-06 12:33 44.44135 -79.96170 715 ft 76 kts 66°
2026-05-06 12:33 44.44303 -79.95374 1073 ft 91 kts 63°
2026-05-06 12:33 44.44448 -79.94496 1552 ft 103 kts 84°
2026-05-06 12:34 44.44107 -79.93594 2092 ft 116 kts 133°
2026-05-06 12:34 44.43341 -79.93240 2686 ft 122 kts 181°
2026-05-06 12:34 44.42604 -79.93690 3325 ft 117 kts 226°
2026-05-06 12:34 44.42122 -79.94575 3898 ft 118 kts 226°
2026-05-06 12:35 44.41484 -79.95400 4290 ft 136 kts 222°
2026-05-06 12:35 44.40715 -79.96345 4576 ft 158 kts 222°
2026-05-06 12:35 44.39855 -79.97411 4854 ft 174 kts 222°
2026-05-06 12:35 44.38907 -79.98589 5127 ft 185 kts 222°
2026-05-06 12:36 44.37954 -79.99779 5569 ft 184 kts 222°
2026-05-06 12:36 44.36998 -80.00976 6040 ft 182 kts 222°
2026-05-06 12:36 44.36061 -80.02148 6485 ft 182 kts 222°
2026-05-06 12:36 44.35120 -80.03322 6916 ft 181 kts 223°
2026-05-06 12:37 44.34181 -80.04494 7351 ft 181 kts 223°
2026-05-06 12:37 44.33244 -80.05661 7823 ft 179 kts 224°
2026-05-06 12:37 44.32328 -80.06805 8229 ft 180 kts 224°
2026-05-06 12:37 44.31402 -80.07961 8671 ft 178 kts 224°
2026-05-06 12:38 44.30480 -80.09109 9045 ft 178 kts 225°
2026-05-06 12:38 44.29549 -80.10272 9418 ft 178 kts 225°
2026-05-06 12:38 44.28639 -80.11403 9852 ft 177 kts 225°
2026-05-06 12:38 44.27716 -80.12553 10277 ft 176 kts 225°
2026-05-06 12:39 44.26813 -80.13678 10670 ft 176 kts 226°
2026-05-06 12:39 44.25894 -80.14823 11061 ft 175 kts 226°
2026-05-06 12:39 44.24993 -80.15945 11414 ft 175 kts 226°
2026-05-06 12:39 44.24088 -80.17070 11764 ft 175 kts 226°
2026-05-06 12:40 44.23184 -80.18192 12109 ft 174 kts 226°
2026-05-06 12:40 44.22278 -80.19318 12438 ft 174 kts 226°
2026-05-06 12:40 44.21384 -80.20429 12770 ft 174 kts 226°
2026-05-06 12:40 44.20475 -80.21557 13118 ft 174 kts 226°
2026-05-06 12:41 44.19585 -80.22661 13470 ft 170 kts 226°
2026-05-06 12:41 44.18687 -80.23770 13682 ft 173 kts 226°
2026-05-06 12:41 44.17789 -80.24889 13960 ft 172 kts 226°
2026-05-06 12:41 44.16918 -80.25967 14318 ft 166 kts 226°
2026-05-06 12:42 44.16076 -80.27003 14675 ft 159 kts 227°
2026-05-06 12:42 44.15270 -80.28002 15035 ft 153 kts 226°
2026-05-06 12:42 44.14487 -80.28971 15326 ft 149 kts 227°
2026-05-06 12:42 44.13699 -80.29948 15493 ft 153 kts 227°
2026-05-06 12:43 44.12908 -80.30927 15658 ft 154 kts 227°
2026-05-06 12:43 44.12113 -80.31912 15823 ft 154 kts 227°
2026-05-06 12:43 44.11308 -80.32904 15981 ft 153 kts 227°
2026-05-06 12:43 44.10513 -80.33886 16122 ft 153 kts 227°
2026-05-06 12:44 44.09711 -80.34875 16236 ft 154 kts 226°
2026-05-06 12:44 44.08909 -80.35865 16357 ft 153 kts 227°
2026-05-06 12:44 44.08110 -80.36855 16455 ft 153 kts 227°
2026-05-06 12:44 44.07304 -80.37842 16531 ft 153 kts 228°
2026-05-06 12:45 44.06509 -80.38824 16569 ft 154 kts 226°
2026-05-06 12:45 44.05711 -80.39811 16637 ft 153 kts 227°
2026-05-06 12:45 44.04090 -80.41805 17069 ft 154 kts 226°
2026-05-06 12:46 44.03274 -80.42805 17269 ft 157 kts 227°
2026-05-06 12:46 44.02457 -80.43813 17504 ft 157 kts 227°
2026-05-06 12:46 44.01645 -80.44810 17739 ft 157 kts 228°
2026-05-06 12:46 44.00824 -80.45821 17949 ft 159 kts 227°
2026-05-06 12:47 43.99990 -80.46845 18177 ft 159 kts 227°
2026-05-06 12:47 43.99163 -80.47859 18403 ft 158 kts 227°
2026-05-06 12:47 43.98344 -80.48866 18599 ft 159 kts 227°
2026-05-06 12:47 43.97515 -80.49882 18821 ft 159 kts 228°
2026-05-06 12:48 43.96679 -80.50907 19001 ft 161 kts 228°
2026-05-06 12:48 43.95842 -80.51932 19233 ft 160 kts 229°
2026-05-06 12:48 43.95008 -80.52954 19438 ft 160 kts 229°
2026-05-06 12:48 43.94172 -80.53981 19607 ft 161 kts 229°
2026-05-06 12:49 43.93336 -80.55005 19802 ft 162 kts 229°
2026-05-06 12:49 43.92474 -80.56066 19823 ft 170 kts 229°
2026-05-06 12:49 43.91554 -80.57197 19825 ft 177 kts 228°
2026-05-06 12:49 43.90616 -80.58347 19827 ft 183 kts 228°
2026-05-06 12:50 43.89655 -80.59519 19832 ft 188 kts 228°
2026-05-06 12:50 43.88654 -80.60742 19833 ft 192 kts 228°
2026-05-06 12:50 43.87635 -80.61987 19832 ft 194 kts 228°
2026-05-06 12:50 43.86616 -80.63229 19835 ft 196 kts 227°
2026-05-06 12:51 43.85579 -80.64495 19828 ft 198 kts 228°
2026-05-06 12:51 43.84545 -80.65755 19836 ft 199 kts 227°
2026-05-06 12:51 43.83487 -80.67045 19840 ft 201 kts 227°
2026-05-06 12:51 43.82437 -80.68326 19841 ft 202 kts 227°
2026-05-06 12:52 43.81372 -80.69624 19845 ft 203 kts 227°
2026-05-06 12:52 43.80299 -80.70927 19843 ft 204 kts 227°
2026-05-06 12:52 43.79224 -80.72237 19846 ft 205 kts 227°
2026-05-06 12:52 43.78152 -80.73541 19845 ft 206 kts 227°
2026-05-06 12:53 43.77068 -80.74860 19840 ft 207 kts 227°
2026-05-06 12:53 43.76000 -80.76160 19841 ft 207 kts 227°
2026-05-06 12:53 43.74903 -80.77490 19848 ft 208 kts 227°
2026-05-06 12:53 43.73810 -80.78817 19850 ft 208 kts 227°
2026-05-06 12:54 43.72713 -80.80146 19850 ft 209 kts 227°
2026-05-06 12:54 43.71622 -80.81473 19847 ft 209 kts 227°
2026-05-06 12:54 43.70524 -80.82803 19847 ft 210 kts 227°
2026-05-06 12:54 43.69425 -80.84133 19842 ft 210 kts 227°
2026-05-06 12:55 43.68322 -80.85471 19843 ft 210 kts 227°
2026-05-06 12:55 43.67221 -80.86802 19841 ft 210 kts 227°
2026-05-06 12:55 43.66120 -80.88134 19841 ft 210 kts 227°
2026-05-06 12:55 43.65016 -80.89471 19844 ft 210 kts 227°
2026-05-06 12:56 43.63924 -80.90791 19849 ft 210 kts 227°
2026-05-06 12:56 43.62814 -80.92128 19851 ft 210 kts 227°
2026-05-06 12:56 43.61720 -80.93452 19848 ft 210 kts 227°
2026-05-06 12:56 43.60601 -80.94802 19846 ft 210 kts 227°
2026-05-06 12:57 43.59510 -80.96118 19842 ft 210 kts 227°
2026-05-06 12:57 43.58405 -80.97450 19845 ft 210 kts 227°
2026-05-06 12:57 43.57306 -80.98772 19845 ft 210 kts 227°
2026-05-06 12:57 43.56203 -81.00102 19849 ft 210 kts 227°
2026-05-06 12:58 43.55088 -81.01448 19848 ft 210 kts 227°
2026-05-06 12:58 43.53987 -81.02769 19845 ft 211 kts 227°
2026-05-06 12:58 43.52884 -81.04095 19855 ft 211 kts 227°
2026-05-06 12:58 43.51776 -81.05428 19852 ft 211 kts 227°
2026-05-06 12:59 43.50665 -81.06760 19851 ft 211 kts 227°
2026-05-06 12:59 43.49548 -81.08101 19849 ft 211 kts 227°
2026-05-06 12:59 43.48435 -81.09438 19848 ft 210 kts 227°
2026-05-06 12:59 43.47331 -81.10764 19851 ft 210 kts 227°
2026-05-06 13:00 43.46230 -81.12084 19854 ft 211 kts 227°
2026-05-06 13:00 43.45127 -81.13406 19846 ft 211 kts 227°
2026-05-06 13:00 43.44019 -81.14730 19845 ft 211 kts 227°
2026-05-06 13:00 43.42907 -81.16063 19850 ft 211 kts 227°
2026-05-06 13:01 43.41798 -81.17388 19841 ft 211 kts 227°
2026-05-06 13:01 43.40691 -81.18713 19848 ft 211 kts 227°
2026-05-06 13:01 43.39571 -81.20053 19845 ft 211 kts 227°
2026-05-06 13:01 43.38458 -81.21380 19846 ft 210 kts 227°
2026-05-06 13:02 43.37355 -81.22697 19847 ft 210 kts 228°
2026-05-06 13:02 43.36243 -81.24023 19851 ft 210 kts 227°
2026-05-06 13:02 43.35137 -81.25344 19852 ft 210 kts 228°
2026-05-06 13:02 43.34023 -81.26673 19853 ft 210 kts 227°
2026-05-06 13:03 43.32904 -81.28007 19846 ft 210 kts 227°
2026-05-06 13:03 43.31793 -81.29331 19853 ft 210 kts 227°
2026-05-06 13:03 43.30668 -81.30669 19855 ft 210 kts 227°
2026-05-06 13:03 43.29540 -81.32012 19851 ft 210 kts 227°
2026-05-06 13:04 43.28433 -81.33328 19853 ft 210 kts 227°
2026-05-06 13:04 43.27314 -81.34658 19846 ft 210 kts 227°
2026-05-06 13:04 43.26184 -81.36002 19860 ft 210 kts 227°
2026-05-06 13:04 43.25058 -81.37336 19861 ft 210 kts 228°
2026-05-06 13:05 43.23939 -81.38665 19860 ft 210 kts 227°
2026-05-06 13:05 43.22808 -81.40007 19862 ft 210 kts 227°
2026-05-06 13:05 43.21672 -81.41354 19861 ft 210 kts 228°
2026-05-06 13:05 43.20559 -81.42672 19862 ft 210 kts 228°
2026-05-06 13:06 43.19438 -81.44000 19861 ft 210 kts 228°
2026-05-06 13:06 43.18317 -81.45328 19854 ft 210 kts 228°
2026-05-06 13:06 43.17200 -81.46648 19862 ft 210 kts 227°
2026-05-06 13:06 43.16087 -81.47966 19863 ft 210 kts 228°
2026-05-06 13:07 43.14970 -81.49286 19861 ft 210 kts 228°
2026-05-06 13:07 43.13870 -81.50586 19859 ft 210 kts 228°
2026-05-06 13:07 43.12748 -81.51910 19875 ft 210 kts 227°
2026-05-06 13:07 43.11649 -81.53208 19869 ft 210 kts 228°
2026-05-06 13:08 43.10541 -81.54517 19881 ft 210 kts 227°
2026-05-06 13:08 43.09425 -81.55830 19890 ft 210 kts 228°
2026-05-06 13:08 43.08344 -81.57104 19876 ft 202 kts 228°
2026-05-06 13:08 43.07271 -81.58370 19560 ft 207 kts 228°
2026-05-06 13:09 43.06148 -81.59695 19127 ft 216 kts 228°
2026-05-06 13:09 43.05007 -81.61037 18675 ft 222 kts 227°
2026-05-06 13:09 43.03825 -81.62427 18235 ft 226 kts 227°
2026-05-06 13:09 43.02620 -81.63843 17787 ft 229 kts 227°
2026-05-06 13:10 43.01408 -81.65266 17343 ft 231 kts 226°
2026-05-06 13:10 43.00177 -81.66714 16877 ft 234 kts 226°
2026-05-06 13:10 42.98939 -81.68169 16396 ft 235 kts 226°
2026-05-06 13:10 42.97702 -81.69620 15918 ft 234 kts 225°
2026-05-06 13:11 42.96460 -81.71075 15418 ft 233 kts 225°
2026-05-06 13:11 42.95234 -81.72511 14914 ft 232 kts 225°
2026-05-06 13:11 42.94005 -81.73949 14411 ft 232 kts 225°
2026-05-06 13:11 42.92783 -81.75380 13919 ft 231 kts 225°
2026-05-06 13:12 42.91575 -81.76793 13427 ft 230 kts 225°
2026-05-06 13:12 42.90366 -81.78207 12941 ft 229 kts 224°
2026-05-06 13:12 42.89166 -81.79605 12460 ft 229 kts 224°
2026-05-06 13:12 42.87944 -81.81033 11970 ft 229 kts 224°
2026-05-06 13:13 42.86737 -81.82439 11517 ft 227 kts 224°
2026-05-06 13:13 42.85632 -81.83944 11116 ft 220 kts 239°
2026-05-06 13:13 42.85145 -81.85886 10900 ft 211 kts 256°
2026-05-06 13:13 42.84850 -81.87759 10887 ft 198 kts 257°
2026-05-06 13:14 42.84565 -81.89566 10876 ft 188 kts 257°
2026-05-06 13:14 42.84278 -81.91309 10881 ft 181 kts 256°
2026-05-06 13:14 42.83996 -81.92967 10885 ft 180 kts 256°
2026-05-06 13:14 42.83688 -81.94706 10885 ft 195 kts 255°
2026-05-06 13:15 42.83361 -81.96549 10885 ft 206 kts 256°
2026-05-06 13:15 42.82933 -81.98460 10886 ft 214 kts 243°
2026-05-06 13:15 42.81958 -82.00048 10893 ft 221 kts 228°
2026-05-06 13:15 42.80846 -82.01521 10884 ft 225 kts 228°
2026-05-06 13:16 42.79713 -82.03030 10881 ft 226 kts 228°
2026-05-06 13:16 42.78587 -82.04554 10879 ft 227 kts 229°
2026-05-06 13:16 42.77472 -82.06078 10888 ft 228 kts 229°
2026-05-06 13:16 42.76360 -82.07602 10884 ft 228 kts 229°
2026-05-06 13:17 42.75250 -82.09129 10877 ft 229 kts 229°
2026-05-06 13:17 42.74118 -82.10691 10886 ft 229 kts 229°
2026-05-06 13:17 42.72991 -82.12241 10884 ft 229 kts 229°
2026-05-06 13:17 42.71874 -82.13784 10881 ft 230 kts 229°
2026-05-06 13:18 42.70741 -82.15343 10886 ft 230 kts 229°
2026-05-06 13:18 42.69614 -82.16893 10886 ft 230 kts 229°
2026-05-06 13:18 42.68487 -82.18444 10887 ft 230 kts 229°
2026-05-06 13:18 42.67331 -82.20033 10889 ft 230 kts 229°
2026-05-06 13:19 42.66206 -82.21580 10886 ft 230 kts 229°
2026-05-06 13:19 42.65065 -82.23147 10888 ft 230 kts 229°
2026-05-06 13:19 42.63938 -82.24693 10884 ft 231 kts 229°
2026-05-06 13:19 42.62816 -82.26230 10884 ft 230 kts 229°
2026-05-06 13:20 42.61670 -82.27805 10886 ft 230 kts 229°
2026-05-06 13:20 42.60544 -82.29347 10890 ft 230 kts 229°
2026-05-06 13:20 42.59412 -82.30900 10888 ft 230 kts 229°
2026-05-06 13:20 42.58294 -82.32435 10889 ft 221 kts 229°
2026-05-06 13:21 42.57252 -82.33865 10766 ft 208 kts 229°
2026-05-06 13:21 42.56226 -82.35263 10383 ft 208 kts 229°
2026-05-06 13:21 42.55215 -82.36643 10010 ft 209 kts 229°
2026-05-06 13:21 42.54183 -82.38048 9634 ft 209 kts 229°
2026-05-06 13:22 42.53146 -82.39465 9250 ft 212 kts 229°
2026-05-06 13:22 42.52105 -82.40889 8872 ft 215 kts 229°
2026-05-06 13:22 42.51039 -82.42345 8490 ft 217 kts 229°
2026-05-06 13:22 42.49977 -82.43793 8112 ft 219 kts 229°
2026-05-06 13:23 42.48905 -82.45254 7722 ft 221 kts 229°
2026-05-06 13:23 42.47801 -82.46755 7331 ft 223 kts 229°
2026-05-06 13:23 42.46712 -82.48241 6947 ft 225 kts 229°
2026-05-06 13:23 42.45593 -82.49761 6558 ft 226 kts 229°
2026-05-06 13:24 42.44481 -82.51276 6174 ft 228 kts 229°
2026-05-06 13:24 42.43350 -82.52815 5780 ft 229 kts 229°
2026-05-06 13:24 42.42210 -82.54363 5390 ft 230 kts 229°
2026-05-06 13:24 42.41067 -82.55913 4998 ft 231 kts 229°
2026-05-06 13:25 42.39923 -82.57468 4611 ft 232 kts 229°
2026-05-06 13:25 42.38760 -82.58979 4230 ft 233 kts 226°
2026-05-06 13:25 42.37495 -82.60374 3936 ft 232 kts 217°
2026-05-06 13:25 42.36188 -82.61571 3903 ft 220 kts 217°
2026-05-06 13:26 42.34927 -82.62707 3902 ft 212 kts 218°
2026-05-06 13:26 42.33729 -82.63790 3901 ft 202 kts 218°
2026-05-06 13:26 42.32561 -82.64845 3710 ft 204 kts 218°
2026-05-06 13:26 42.31358 -82.65935 3452 ft 208 kts 217°
2026-05-06 13:27 42.30149 -82.67030 3197 ft 210 kts 217°
2026-05-06 13:27 42.28919 -82.68147 2958 ft 211 kts 217°
2026-05-06 13:27 42.27731 -82.69221 2907 ft 203 kts 217°
2026-05-06 13:27 42.26546 -82.70215 2904 ft 198 kts 210°
2026-05-06 13:28 42.25326 -82.71014 2902 ft 193 kts 207°
2026-05-06 13:28 42.24089 -82.71801 2910 ft 197 kts 207°
2026-05-06 13:28 42.22843 -82.72604 2912 ft 202 kts 208°
2026-05-06 13:28 42.21553 -82.73439 2909 ft 204 kts 208°
2026-05-06 13:29 42.20379 -82.74470 2894 ft 201 kts 234°
2026-05-06 13:29 42.20013 -82.76189 2903 ft 191 kts 277°
2026-05-06 13:29 42.20417 -82.77872 2912 ft 188 kts 297°
2026-05-06 13:29 42.21001 -82.79408 2923 ft 181 kts 299°
2026-05-06 13:30 42.21559 -82.80889 2948 ft 169 kts 298°
2026-05-06 13:30 42.22042 -82.82216 2771 ft 146 kts 298°
2026-05-06 13:30 42.22480 -82.83430 2585 ft 140 kts 298°
2026-05-06 13:30 42.22903 -82.84609 2404 ft 140 kts 298°
2026-05-06 13:31 42.23334 -82.85809 2214 ft 141 kts 298°
2026-05-06 13:31 42.23759 -82.87011 2026 ft 142 kts 297°
2026-05-06 13:31 42.24178 -82.88225 1847 ft 137 kts 298°
2026-05-06 13:31 42.24577 -82.89339 1660 ft 129 kts 298°
2026-05-06 13:32 42.24964 -82.90414 1473 ft 122 kts 298°
2026-05-06 13:32 42.25321 -82.91411 1317 ft 113 kts 298°
2026-05-06 13:32 42.25658 -82.92353 1163 ft 106 kts 298°
2026-05-06 13:32 42.25979 -82.93246 1015 ft 102 kts 299°
2026-05-06 13:33 42.26290 -82.94079 887 ft 95 kts 297°
2026-05-06 13:33 42.26585 -82.94905 733 ft 97 kts 298°
2026-05-06 13:33 42.26854 -82.95664 621 ft 73 kts 295°
2026-05-06 13:33 42.26993 -82.96074 620 ft 21 kts 295°
2026-05-06 13:34 42.26979 -82.96213 620 ft 17 kts 197°
2026-05-06 13:34 42.26849 -82.96264 620 ft 14 kts 197°
2026-05-06 13:34 42.26800 -82.96358 621 ft 14 kts 282°
2026-05-06 13:34 42.26819 -82.96477 621 ft 12 kts 271°
2026-05-06 13:35 42.26794 -82.96514 621 ft 0 kts 198°